Wind_Speed
48 47 48 48 47 45 44 46 49 51 55 59 62 64 64 64 67 64 56 51 52 47 41 39 37 36 36 34 30 25 23 23 23 22 22 22 22 22 21 20 21 23 23 22 20 19 19 19 18 16 17 17 18 18 18 17 18 19 21 23 25 26 27 26 27 30 34 38 42 40 37 34 34 36 37 38 39 40 41 42 41 39 39 38 35 33 32
45 44 43 44 45 45 43 44 45 46 50 55 57 59 60 62 64 61 56 54 51 46 43 41 38 37 36 34 32 28 26 26 26 25 24 23 22 22 20 18 18 19 20 20 20 19 17 18 17 16 15 16 18 19 19 19 20 21 22 23 23 24 24 26 30 34 35 39 43 42 39 36 36 38 38 36 35 36 38 40 40 40 41 39 35 33 31
44 42 40 40 41 42 43 45 45 45 47 51 54 55 57 60 61 58 57 57 53 48 45 42 40 38 36 34 33 29 26 26 26 25 24 23 22 22 20 17 16 18 20 21 20 19 18 19 18 16 15 15 16 19 20 21 22 22 23 22 22 23 25 28 33 35 36 38 41 39 36 34 33 34 33 33 34 35 36 37 37 39 40 37 33 32 30
43 40 38 39 39 39 42 45 47 46 48 50 53 54 56 58 58 57 58 58 55 49 45 42 41 39 36 34 32 27 26 26 27 26 25 23 22 21 19 18 18 20 22 22 22 20 20 22 22 21 19 17 18 19 20 22 23 24 25 24 25 26 30 32 35 37 38 39 41 40 39 36 32 30 31 33 35 36 37 36 36 37 37 35 33 33 34
43 40 39 40 39 40 45 49 50 49 49 51 53 54 56 57 57 58 58 57 53 49 45 42 41 39 37 34 29 26 25 26 27 28 27 25 24 22 22 22 22 23 24 23 23 23 23 24 25 25 24 23 22 23 23 24 25 26 27 28 29 31 33 35 36 39 41 41 42 44 44 38 31 29 30 33 35 36 36 35 34 34 35 35 35 35 35
44 42 41 42 43 45 50 52 51 50 50 50 52 54 56 56 56 57 56 54 52 50 44 40 39 39 37 33 28 26 26 26 26 26 26 27 26 25 26 27 26 26 26 25 26 27 27 27 27 28 27 26 27 27 26 27 28 29 30 31 32 33 34 36 38 41 42 43 44 45 43 38 34 33 34 34 35 35 34 33 33 33 33 32 30 28 29
44 44 42 44 46 47 49 50 49 49 49 49 51 53 55 55 55 56 54 52 52 50 43 38 38 39 38 34 30 29 28 27 26 25 26 28 27 27 29 29 29 29 29 28 29 30 30 31 31 30 29 29 30 29 29 30 31 32 33 34 35 36 37 39 41 42 43 44 47 46 42 40 39 39 39 36 33 32 33 33 33 31 28 25 23 24 25
44 45 45 47 47 47 47 47 46 46 48 49 51 53 56 57 56 56 54 52 51 48 43 39 39 39 38 37 35 32 31 28 26 26 27 28 29 30 29 29 30 31 31 31 32 33 34 34 33 30 30 32 32 31 32 33 34 35 36 37 38 39 41 42 43 45 45 46 48 47 44 41 39 37 36 33 31 31 33 33 32 29 26 24 24 24 25
45 47 49 49 48 47 47 47 45 45 47 49 51 53 55 57 57 55 53 50 49 47 43 41 40 38 37 37 37 34 32 29 27 27 28 29 32 33 31 31 32 34 34 35 37 38 38 36 33 31 33 34 34 33 34 36 37 39 39 40 41 42 45 46 47 47 47 48 50 48 43 41 39 35 32 32 32 32 33 33 31 28 27 26 26 25 24
47 49 51 50 49 48 47 46 45 43 44 46 48 52 55 56 56 54 51 49 48 45 42 41 40 37 36 37 37 35 32 31 30 29 29 32 35 36 35 36 37 37 38 39 41 41 39 35 34 34 35 36 35 35 36 38 40 41 42 42 43 45 47 48 48 49 49 50 51 49 44 42 39 34 32 34 34 33 34 33 29 27 28 29 27 26 25
48 50 51 50 49 49 47 45 42 41 42 42 43 49 55 56 54 52 49 47 45 41 39 39 38 37 37 37 36 34 32 32 32 32 32 35 38 40 41 41 41 41 41 42 42 40 38 36 37 37 37 36 36 37 39 40 43 45 44 44 46 48 49 49 49 49 49 50 51 50 45 41 37 35 35 36 34 32 33 32 28 26 27 27 27 27 26
49 49 48 47 48 48 47 45 41 38 37 37 40 48 55 54 50 48 46 44 42 40 39 39 38 37 38 37 35 33 32 34 35 34 35 37 40 43 44 44 45 44 43 43 41 38 38 39 39 38 37 38 39 40 42 44 46 47 46 48 50 50 50 50 50 50 50 50 50 48 43 39 36 35 35 35 34 33 31 29 27 27 27 27 29 29 27
51 47 43 42 45 47 45 43 41 36 32 34 41 49 52 49 47 46 43 41 40 40 40 40 39 38 38 36 34 34 34 36 36 35 36 38 40 42 45 46 46 45 43 41 40 39 39 39 39 38 38 40 42 45 47 48 49 49 49 51 52 52 53 53 52 51 51 50 47 45 43 39 36 36 36 36 35 32 28 26 28 30 31 30 31 32 31
52 48 42 40 41 43 43 41 38 35 33 34 38 43 46 47 46 45 43 41 39 38 39 39 39 39 38 36 36 36 37 37 37 36 37 38 39 41 43 44 44 42 40 38 38 38 38 38 38 40 42 44 47 49 50 49 50 50 51 52 53 55 55 53 52 52 51 48 45 43 42 39 38 38 38 38 35 30 25 26 30 34 34 33 33 35 35
51 48 43 41 39 38 39 40 39 36 35 32 31 34 41 45 46 45 44 43 39 36 37 38 37 36 35 35 36 36 36 36 37 37 37 37 38 39 39 39 40 38 38 38 39 40 42 42 42 44 45 47 49 50 50 51 51 51 52 53 54 54 53 52 52 51 48 44 42 41 41 40 40 40 39 39 34 28 24 26 30 33 34 35 38 39 38
50 48 44 42 41 37 36 38 39 37 35 31 28 30 35 41 45 46 45 43 41 37 36 35 35 34 33 34 35 36 36 37 39 39 38 36 34 35 36 37 38 40 43 44 45 46 46 44 43 44 46 47 49 51 52 53 52 52 52 53 53 53 54 55 52 47 43 42 41 40 40 40 41 42 41 37 32 28 26 27 29 32 36 41 44 42 39
47 47 45 43 42 38 36 38 39 36 34 30 28 28 31 35 40 44 43 40 39 38 36 34 34 35 36 37 36 35 35 37 39 42 44 42 39 38 38 38 39 41 44 45 46 45 43 42 42 44 45 47 50 53 54 53 52 52 52 54 55 55 54 51 45 40 39 40 40 40 40 41 42 42 38 33 32 32 32 29 29 34 40 43 43 41 42
45 45 44 41 38 35 35 39 41 39 35 32 31 31 33 33 35 37 38 38 37 38 37 36 35 36 38 39 38 36 34 34 34 36 39 41 41 40 39 38 38 39 41 42 43 43 43 43 42 43 45 46 50 54 54 52 52 51 51 52 52 49 43 39 37 37 38 40 41 41 40 40 41 38 34 33 35 35 34 33 35 38 41 42 42 43 46
40 42 42 40 37 34 33 36 41 41 39 38 39 39 38 37 35 34 35 35 36 38 38 37 36 37 38 39 39 38 36 34 33 33 34 36 37 37 37 37 37 38 39 41 42 42 42 42 41 42 44 47 51 53 52 51 51 52 50 48 43 37 34 35 36 38 39 40 41 40 39 39 39 38 36 37 38 37 38 40 41 39 39 42 44 44 43
34 39 41 40 38 36 35 37 42 43 42 43 44 43 42 40 38 38 38 38 38 38 38 37 36 36 37 38 39 39 38 37 36 35 35 36 36 36 38 38 37 37 38 40 39 38 39 39 39 40 43 46 48 51 51 52 53 52 47 42 38 35 35 36 38 39 40 41 40 39 38 38 37 37 39 40 40 40 41 41 38 36 38 42 42 39 36
30 36 41 40 38 37 38 41 44 45 46 46 44 43 43 44 43 42 42 41 40 39 38 37 37 37 37 37 39 41 41 40 39 37 37 37 38 39 39 38 38 38 38 37 36 35 36 37 38 39 40 40 40 42 44 45 46 44 42 40 39 38 38 38 39 39 40 41 40 39 38 37 38 40 41 40 37 36 35 34 33 33 35 37 37 36 38
27 31 35 36 36 37 38 40 44 46 48 50 47 42 41 43 45 45 45 44 44 43 41 39 39 40 40 40 41 41 40 39 39 38 38 39 39 39 38 38 38 38 38 37 37 36 36 37 38 39 39 38 36 35 35 35 35 36 38 39 39 38 38 38 38 39 41 42 42 42 40 39 39 39 38 36 35 35 34 33 33 33 33 35 38 41 44
22 24 26 30 33 36 36 37 41 45 49 51 50 48 46 45 45 46 46 46 46 47 45 44 43 43 43 43 42 40 39 38 38 38 38 39 38 38 38 39 39 39 39 39 38 37 36 37 38 40 41 40 38 36 33 32 33 35 37 38 38 38 38 39 40 41 41 40 39 39 38 36 35 35 36 38 40 40 37 34 35 37 39 41 44 46 47
22 22 22 24 29 35 37 36 37 41 44 45 45 47 48 46 45 46 47 47 47 47 47 47 47 45 44 42 40 39 38 39 39 39 39 39 39 38 38 39 39 39 38 37 37 37 37 38 39 40 41 41 39 37 35 34 35 36 37 38 39 38 39 41 41 40 38 35 33 31 30 31 35 39 41 42 43 41 38 37 40 43 45 45 46 45 45
25 24 24 24 25 31 36 38 37 36 37 38 39 40 41 41 40 41 43 43 45 45 44 44 43 42 41 40 39 39 39 39 39 39 40 39 39 38 37 36 37 37 36 36 37 37 38 38 39 40 41 40 39 38 37 36 37 37 38 39 39 39 40 41 40 39 39 38 37 36 36 39 42 43 42 41 40 40 40 41 43 44 45 45 44 44 44
27 26 26 26 26 29 32 36 39 38 36 35 36 37 38 39 39 39 39 40 41 41 40 39 38 37 37 37 37 37 38 39 40 41 42 42 41 39 37 35 35 36 37 38 39 39 39 40 40 40 40 39 38 38 38 37 38 38 39 40 40 40 41 41 41 42 43 44 44 44 45 45 44 42 41 40 39 39 41 42 43 44 44 43 42 42 43
28 27 26 27 28 29 31 34 37 41 43 42 40 40 41 42 42 41 40 41 42 40 39 39 39 38 38 38 39 39 39 40 41 41 41 40 39 37 35 34 35 36 38 39 40 41 41 41 41 40 40 40 39 39 39 39 39 40 40 41 41 41 42 43 44 45 46 46 47 47 47 46 45 43 42 41 40 41 42 43 43 42 40 39 39 41 42
29 28 27 27 28 28 30 32 34 37 41 44 45 45 44 44 45 44 43 43 43 41 39 40 40 40 41 42 42 41 39 38 38 37 37 36 35 34 34 35 35 37 38 40 41 41 41 41 41 40 40 39 39 39 39 40 40 41 41 42 43 44 45 46 46 46 46 46 46 45 45 44 43 42 41 41 42 43 43 42 41 39 39 39 41 41 41
31 30 29 29 29 29 31 33 33 33 33 35 36 38 38 39 42 44 43 42 41 38 37 37 37 37 39 39 39 37 36 36 36 35 35 34 34 35 36 36 37 38 39 39 40 39 39 39 39 39 39 40 40 41 41 42 43 44 45 46 46 46 46 46 46 45 45 44 43 42 41 41 41 41 42 43 43 43 42 41 40 40 41 42 42 41 41
30 32 33 31 29 32 36 37 35 33 32 33 36 38 38 38 38 38 35 32 30 28 27 27 27 29 31 33 34 34 35 35 35 35 35 35 36 37 37 38 38 38 38 38 38 38 38 39 39 40 41 42 42 43 44 45 46 47 47 46 46 46 45 44 43 43 43 41 40 39 40 41 42 43 43 43 43 42 41 41 41 42 42 42 41 40 40
34 35 38 38 37 38 41 41 40 39 38 39 41 39 35 33 32 28 23 20 20 21 21 22 23 26 28 30 32 33 33 33 34 34 35 36 37 38 38 38 38 38 38 38 38 38 39 40 41 42 43 44 44 45 46 47 47 47 46 46 45 45 45 43 43 42 41 40 39 41 43 43 43 42 42 42 41 41 41 41 42 42 41 41 41 41 41
30 31 34 37 36 33 32 33 35 35 33 31 30 28 26 24 22 18 16 16 18 19 20 21 23 25 27 28 29 30 31 32 33 34 35 36 36 36 37 37 37 37 38 38 39 40 42 43 43 44 44 45 45 46 46 46 45 44 44 45 46 47 47 46 45 43 42 43 44 45 45 43 42 42 41 40 40 40 41 42 42 41 40 40 40 40 40
21 21 22 24 23 20 19 19 21 21 19 18 18 18 17 16 15 14 14 16 17 17 19 20 21 22 24 26 27 28 29 30 31 32 33 34 34 35 35 36 37 38 39 40 41 42 43 44 44 44 44 44 45 45 45 44 44 43 44 45 46 47 47 47 46 46 46 46 46 46 44 43 42 41 39 39 40 41 42 41 40 39 39 40 39 39 38
13 14 13 12 11 10 11 11 12 13 13 13 13 13 13 13 13 14 15 16 17 18 19 20 21 22 24 25 26 27 28 29 31 32 32 33 34 35 36 37 39 40 41 42 42 42 43 43 43 43 43 43 44 44 44 45 45 45 45 46 46 46 46 47 47 47 46 45 43 42 41 40 38 37 38 39 40 40 40 39 39 39 39 38 37 36 35
8 8 7 6 6 6 8 9 10 11 12 12 12 13 13 13 14 15 16 17 18 19 20 21 23 24 25 27 28 29 30 31 32 33 34 35 36 37 38 39 39 40 40 40 41 41 41 41 41 41 42 42 42 43 43 44 45 45 45 46 45 45 45 46 46 45 44 42 40 40 39 38 37 38 38 39 39 39 39 38 38 37 36 35 33 33 31
10 9 8 8 8 9 10 11 12 13 13 14 14 14 14 15 15 16 17 18 19 21 22 24 25 27 28 29 30 31 32 33 34 35 36 36 37 37 37 38 38 38 38 38 38 38 39 39 40 40 41 41 42 42 43 44 44 45 45 44 43 42 43 43 41 39 38 39 39 39 39 38 38 39 39 38 37 36 36 35 34 33 32 31 31 29 28
11 11 12 12 12 12 13 14 14 15 15 16 16 16 17 17 18 19 20 22 23 24 25 27 28 29 30 31 31 32 33 33 34 34 34 34 34 35 35 35 35 36 36 37 37 38 38 39 40 40 41 41 41 42 43 43 44 43 42 40 38 36 35 34 32 31 32 33 35 35 36 38 39 40 39 37 35 33 31 31 30 30 30 29 28 26 26
12 13 14 15 15 15 16 16 17 17 18 18 19 19 20 20 21 22 24 25 25 27 28 28 29 30 30 30 31 31 31 31 32 32 32 33 33 33 33 34 34 35 36 37 37 38 38 39 39 39 39 39 39 40 41 41 41 40 38 37 36 33 30 29 28 28 29 31 32 34 36 37 38 37 36 34 32 30 29 28 28 28 27 27 26 26 27
15 16 17 17 17 17 17 17 18 19 19 20 21 21 22 23 24 25 26 26 27 28 28 28 29 29 29 30 30 30 30 31 31 32 32 33 33 34 34 35 35 36 36 36 36 36 36 36 36 36 36 36 37 37 38 37 36 35 35 36 37 36 36 35 35 34 33 35 36 36 35 34 32 32 30 29 28 27 27 27 27 26 26 26 27 27 28
17 18 18 18 19 19 19 19 19 20 20 21 22 23 23 24 25 25 26 27 27 27 28 28 28 29 29 29 29 30 30 31 31 32 33 34 34 35 35 35 35 35 35 34 33 32 32 32 32 32 33 33 32 33 33 32 30 31 32 33 34 36 38 38 38 37 37 37 36 34 32 30 28 28 27 27 27 27 26 26 26 25 26 26 26 27 27
17 18 18 18 18 19 19 20 20 21 22 22 23 24 24 24 25 25 25 25 25 26 26 26 27 27 28 28 29 30 30 31 32 32 33 33 34 34 34 34 34 33 32 31 30 29 29 30 29 29 29 28 28 27 27 26 26 27 29 30 31 33 34 35 35 35 34 33 32 31 29 29 28 27 27 27 27 26 26 25 25 25 26 26 26 26 27
17 17 17 18 18 19 20 21 22 23 23 24 24 24 24 24 24 23 23 23 23 23 24 25 26 27 27 28 29 30 30 31 31 31 32 32 32 32 31 31 30 30 29 29 28 28 28 28 28 27 27 26 25 24 24 23 22 22 23 24 26 28 29 29 29 29 28 28 27 27 26 26 26 26 26 25 25 24 24 25 25 25 26 26 26 26 24
16 17 17 18 19 19 20 21 21 22 22 22 22 22 22 22 22 22 22 22 23 23 24 25 26 27 28 29 29 30 30 30 30 30 29 29 29 28 28 28 27 27 27 27 27 27 27 27 27 26 26 25 24 24 23 22 21 21 20 21 22 23 23 24 24 24 24 24 23 23 23 23 23 23 23 23 23 24 24 25 25 25 26 26 24 22 20
17 17 18 18 19 19 19 19 19 19 19 20 20 21 21 21 22 22 22 22 23 24 24 25 26 27 28 28 28 28 28 27 27 27 27 27 27 27 26 26 26 26 25 25 25 25 25 25 25 24 24 23 23 22 22 21 21 21 21 21 21 21 21 22 22 22 22 23 23 23 23 23 23 23 23 23 24 24 25 25 25 25 25 23 20 18 17
16 17 17 17 17 17 17 17 17 17 18 19 19 20 21 21 22 22 23 23 24 24 25 25 26 26 26 26 26 26 26 25 25 25 25 25 25 25 25 25 25 24 24 24 24 24 24 23 23 23 23 22 22 22 22 21 21 21 21 21 21 21 21 21 22 22 23 23 24 24 24 24 24 24 24 24 24 25 25 25 24 23 21 19 17 17 17
14 14 14 14 15 15 15 16 16 17 18 18 19 20 21 21 22 22 23 23 24 24 24 24 24 24 24 24 24 24 24 23 23 23 23 23 23 23 23 23 23 23 23 24 24 24 23 23 23 23 23 23 23 23 22 22 21 21 21 21 21 21 21 22 23 23 24 24 24 24 24 24 24 23 23 23 24 24 23 23 21 19 18 18 18 18 18
12 13 13 13 13 14 15 15 16 16 17 18 19 20 21 21 22 22 22 23 23 22 22 21 21 21 22 22 22 22 22 22 22 22 22 22 22 22 22 22 22 23 23 23 23 23 23 23 24 24 24 24 23 23 23 22 22 21 21 21 21 22 22 22 23 23 23 23 23 22 22 22 21 21 21 21 22 22 21 20 19 18 18 19 20 20 20
12 12 13 13 14 14 15 16 16 17 18 19 20 21 21 21 21 21 21 21 21 21 20 20 20 21 21 21 22 22 22 22 22 22 22 22 22 22 22 22 22 22 22 23 23 23 23 23 23 23 23 23 23 22 22 22 21 21 21 21 21 21 21 21 21 21 21 21 21 20 20 19 19 19 20 20 21 21 21 20 20 20 20 21 21 22 22
12 13 13 14 15 15 16 17 17 18 18 19 20 20 20 20 20 20 19 19 20 20 20 20 20 21 21 22 22 23 23 24 24 24 23 23 23 22 22 22 22 22 22 22 21 21 21 21 21 21 21 21 20 20 20 20 20 20 19 19 19 19 19 19 20 20 20 20 20 20 20 19 19 20 20 21 22 22 22 21 21 22 23 23 24 25 25
13 13 14 15 16 17 17 18 18 18 18 19 19 19 19 19 19 19 19 19 19 20 20 20 21 22 22 23 23 24 24 25 25 24 24 23 23 22 22 22 22 21 21 20 20 19 19 19 19 19 19 19 19 19 20 20 20 20 20 20 20 20 20 20 21 21 22 22 22 22 22 22 22 22 22 23 23 24 24 23 23 24 25 26 27 28 28
14 14 15 16 17 17 18 18 18 18 18 18 19 19 19 19 19 19 20 20 20 21 21 22 22 22 23 24 24 25 25 25 25 25 24 23 23 22 21 21 21 20 20 20 19 19 19 19 20 20 20 20 21 21 22 22 22 22 23 23 23 23 23 23 23 23 24 24 24 25 25 25 24 24 25 25 25 26 26 26 26 26 27 28 30 31 31
15 16 16 17 17 18 18 18 18 18 19 19 19 19 19 20 20 21 21 22 22 22 22 23 23 23 23 24 24 25 25 25 25 24 23 23 22 22 21 21 21 21 21 21 21 22 22 22 22 23 23 23 23 24 24 24 24 25 25 25 25 25 24 24 25 25 25 26 26 26 26 26 26 27 27 27 27 28 28 28 28 29 29 30 31 32 33
Wind_Direction
235 231 226 222 221 224 228 232 233 232 230 231 232 231 231 232 235 239 241 240 241 242 242 242 244 247 250 250 247 246 245 243 242 245 246 243 242 246 255 260 252 243 241 245 248 247 248 251 258 265 266 265 265 267 271 278 286 291 291 291 293 294 297 302 309 316 318 313 305 297 292 295 302 305 303 299 291 287 287 289 287 283 282 283 283 281 281
235 231 225 222 220 220 221 225 229 231 231 231 232 233 232 233 236 240 242 242 241 241 241 242 244 247 252 251 243 239 241 244 245 246 246 243 243 250 258 261 256 246 244 247 249 253 259 262 264 268 268 267 269 270 271 276 284 291 295 297 297 296 299 304 309 314 316 315 310 302 297 299 303 303 305 305 302 299 297 295 292 289 286 284 282 281 279
234 230 223 219 218 217 217 219 223 227 229 230 231 232 232 233 235 238 240 241 240 238 238 240 241 244 248 246 240 236 237 245 248 245 242 242 245 251 254 257 257 252 250 254 258 263 269 272 275 277 274 276 278 276 275 278 284 291 298 301 298 297 300 304 308 311 312 316 318 314 311 312 307 301 302 308 309 307 304 299 295 293 291 286 282 279 277
232 227 221 218 216 215 215 215 217 221 225 227 228 229 230 231 233 236 239 239 238 236 236 238 239 240 241 241 238 232 230 237 243 242 242 244 246 249 253 260 263 258 256 260 264 266 269 273 278 280 280 284 288 287 287 289 292 297 301 301 298 299 302 304 306 308 310 315 318 317 316 315 308 301 306 312 310 306 304 301 298 296 294 288 283 281 278
230 225 220 219 218 217 217 216 216 218 221 224 226 227 227 229 231 233 236 237 237 237 236 238 239 238 238 237 231 225 226 231 236 239 243 247 249 251 257 265 266 261 260 262 263 265 269 272 276 277 280 286 290 291 294 296 297 300 301 299 298 299 301 303 304 307 311 315 314 314 315 314 308 305 309 313 311 307 306 305 302 298 293 288 287 286 282
230 226 220 219 219 221 222 220 218 218 220 222 226 226 226 227 229 231 233 234 236 237 236 237 238 237 236 232 223 220 224 226 230 235 239 245 250 255 260 263 260 256 258 262 263 264 267 270 272 275 279 285 288 291 295 297 298 300 300 298 297 297 300 302 303 306 310 312 312 313 314 312 309 307 307 310 310 307 308 309 305 299 293 288 288 289 285
229 227 223 221 222 223 224 221 218 218 219 222 225 227 226 226 228 230 231 231 234 236 235 237 237 235 232 227 220 218 222 224 227 230 234 241 248 254 257 256 251 252 257 260 260 261 262 264 268 273 278 282 284 289 294 297 298 298 298 297 296 297 299 302 304 306 309 311 312 312 309 306 306 304 303 306 307 306 307 307 303 299 290 280 282 287 287
230 229 226 225 225 224 223 220 217 218 220 221 224 227 227 226 226 228 229 230 233 236 236 236 235 232 229 225 221 220 223 227 231 232 233 237 242 245 246 243 242 247 251 253 254 255 258 263 270 274 276 277 281 287 293 296 297 297 296 295 295 297 300 303 306 307 310 311 310 307 304 304 305 301 299 303 305 304 303 303 301 295 281 269 274 283 285
230 230 230 229 227 226 225 223 220 219 220 222 225 228 228 227 226 226 226 228 232 236 238 235 233 232 231 226 222 223 227 231 234 236 235 234 236 237 235 232 235 241 245 249 252 256 262 269 274 274 274 277 282 287 292 296 297 296 295 294 295 298 301 304 306 307 310 309 306 304 304 305 304 299 297 302 305 302 300 300 298 289 275 268 271 276 280
227 228 231 231 229 228 228 226 223 222 222 223 226 229 230 228 226 224 224 226 231 236 237 234 233 234 232 228 224 226 230 232 235 239 238 234 233 234 234 234 238 244 248 250 255 262 269 272 272 271 275 281 284 287 292 296 297 296 294 294 297 301 303 304 305 306 307 307 305 304 303 301 300 298 297 301 305 303 298 297 293 283 274 270 267 269 276
227 226 228 232 231 230 229 227 226 226 226 227 229 231 231 228 225 223 222 225 229 233 235 234 234 234 233 230 228 229 231 234 238 241 239 236 234 235 238 243 247 249 251 253 259 266 269 268 268 271 276 280 283 287 292 296 298 297 295 295 298 301 302 303 304 305 306 306 304 302 302 301 300 300 300 301 305 303 298 295 290 280 273 268 263 265 274
229 225 226 229 231 231 231 229 227 228 229 230 233 233 231 228 224 221 220 224 230 233 234 234 233 232 231 230 230 230 232 236 240 242 240 239 239 240 244 248 250 251 253 257 261 264 263 264 269 274 277 280 284 288 292 294 297 297 295 295 298 299 300 301 302 302 304 305 302 299 300 301 301 301 301 301 304 304 297 289 282 275 271 265 260 262 273
227 226 226 228 230 232 232 230 227 228 229 232 235 236 233 229 224 220 220 225 230 233 234 233 232 229 228 228 229 230 232 236 241 243 243 243 244 245 247 249 250 251 255 257 259 259 260 265 271 275 279 283 287 290 293 294 295 296 295 296 298 299 299 299 299 301 303 303 299 297 299 301 302 302 301 301 305 304 294 281 275 273 273 268 260 262 273
224 224 224 226 229 231 232 229 225 225 229 233 237 238 234 228 223 220 221 224 227 231 232 232 231 230 229 230 232 234 237 240 243 245 246 247 248 250 251 251 251 252 254 255 256 259 263 270 275 279 284 288 290 291 292 292 293 294 294 296 298 299 298 296 297 300 301 299 295 294 297 299 301 301 300 301 304 303 291 279 275 274 272 266 262 265 271
221 222 222 223 227 230 230 226 222 222 226 231 234 234 231 227 223 221 222 225 228 230 230 230 231 233 234 235 237 239 241 241 241 243 244 245 247 247 248 248 250 252 254 255 258 262 267 272 277 281 285 287 288 289 289 290 292 292 293 295 298 297 294 293 295 297 296 293 292 293 296 297 298 299 298 300 301 299 291 282 278 277 273 269 271 273 272
217 218 220 221 225 226 224 220 219 221 224 225 226 225 224 224 223 221 223 227 230 230 229 230 232 235 238 238 239 241 242 240 239 240 240 241 243 242 241 246 252 256 258 261 264 267 270 273 277 280 281 283 287 290 291 291 292 292 293 295 297 294 291 290 292 292 289 288 289 292 294 295 296 297 296 297 297 295 293 288 282 281 280 278 279 277 273
216 216 219 221 223 220 215 214 216 218 219 218 217 217 218 221 222 222 224 228 230 230 229 231 234 237 239 240 242 244 246 245 244 243 242 241 243 243 245 252 259 262 264 267 270 271 272 274 276 280 284 286 289 292 293 293 293 294 294 294 294 292 290 289 287 285 284 286 287 290 292 293 295 295 293 293 295 295 294 290 284 281 281 280 280 276 271
221 216 216 219 218 210 205 210 214 215 214 211 207 207 211 216 219 222 225 228 230 231 231 234 237 239 241 242 243 244 245 246 249 251 250 249 250 252 255 260 262 265 267 269 270 272 274 276 280 285 289 291 291 291 292 292 292 292 292 291 290 290 287 284 282 281 282 284 286 288 290 291 293 293 291 293 295 292 289 288 286 285 283 279 277 274 272
227 219 213 214 215 207 201 207 215 218 217 210 202 200 204 209 214 218 222 225 229 232 234 236 238 240 241 241 240 239 238 240 245 250 253 255 256 258 259 260 261 263 266 268 270 274 279 283 286 289 291 293 292 290 290 291 290 289 289 287 284 283 281 280 279 280 282 283 284 286 286 287 289 289 290 292 292 290 290 291 291 292 290 284 281 280 278
234 225 214 211 213 212 206 207 214 220 220 212 203 200 203 208 212 216 219 224 228 231 232 233 234 236 238 239 237 237 238 240 243 246 248 251 253 255 257 260 263 265 267 270 274 278 283 287 290 291 292 292 291 289 288 287 286 285 284 280 277 278 278 279 280 282 282 282 282 283 284 286 287 287 289 291 290 292 295 294 293 294 291 287 286 285 284
240 233 221 214 213 212 209 209 212 217 221 217 209 203 204 209 214 217 220 223 227 228 227 227 228 230 232 233 234 236 239 242 246 250 254 256 257 257 258 261 265 267 269 272 277 283 286 287 288 288 289 291 292 291 287 284 283 281 279 277 278 279 280 281 282 282 281 281 282 284 286 288 287 288 289 289 290 295 297 294 291 291 288 285 284 285 286
240 240 235 230 223 213 208 209 211 214 218 219 213 206 205 208 213 218 221 223 225 226 225 224 224 226 227 229 231 235 240 245 249 253 255 257 257 257 260 265 267 269 272 276 279 282 284 285 284 284 285 288 291 292 289 285 282 280 278 279 281 281 281 281 281 281 282 284 285 285 285 285 286 287 287 287 290 295 296 291 287 285 284 284 285 287 289
229 236 240 240 233 223 216 214 214 213 215 217 212 207 207 209 212 215 219 222 225 228 229 229 226 226 228 231 234 239 243 246 249 250 251 253 256 261 266 269 270 272 274 277 278 279 281 282 282 282 282 284 286 287 286 283 280 278 278 279 280 280 281 281 280 281 285 289 288 284 281 282 285 287 287 288 291 294 293 288 284 282 283 285 288 289 290
217 223 231 235 235 231 228 226 219 210 208 210 209 207 208 211 212 212 216 220 224 227 230 231 230 229 231 233 236 239 242 243 246 250 252 256 261 266 268 269 269 270 273 274 276 277 278 279 279 279 280 281 281 280 279 277 275 275 276 276 277 279 280 281 282 283 286 288 289 286 283 285 289 291 290 291 292 291 288 284 283 283 284 286 288 288 289
212 214 220 225 229 230 232 234 230 217 206 206 209 211 213 216 216 217 219 222 225 228 230 231 232 233 235 236 238 240 243 245 249 254 258 262 266 267 267 266 267 268 270 272 273 275 275 276 276 277 278 278 277 275 274 273 273 274 274 275 276 278 279 281 284 286 286 286 286 284 284 287 290 291 291 291 289 287 285 283 283 284 285 287 287 287 287
213 212 214 218 223 228 232 237 239 233 223 217 216 217 219 221 221 222 224 226 228 231 234 237 239 240 242 244 245 247 249 253 256 260 264 266 266 264 262 262 264 266 268 270 272 273 273 274 274 274 274 273 272 271 271 271 271 273 274 275 275 276 277 278 280 282 284 286 287 287 288 290 292 292 291 290 287 285 285 285 285 286 287 287 287 287 289
217 216 216 220 225 228 232 235 237 235 233 231 229 226 225 226 226 226 229 232 234 236 241 246 250 252 252 253 254 256 258 260 262 262 262 261 260 259 259 261 264 266 267 269 270 271 271 271 271 271 271 270 270 269 269 270 271 272 274 275 276 277 278 278 279 280 282 284 286 287 289 291 291 291 289 288 287 287 287 287 287 287 287 288 289 290 290
221 219 219 224 228 232 233 233 232 232 233 233 234 232 231 231 231 231 232 236 239 243 248 253 255 257 257 257 259 260 260 258 257 256 256 256 258 259 261 263 264 265 266 267 267 268 268 268 268 269 269 269 269 270 271 272 273 274 275 276 277 279 280 281 282 284 284 285 286 287 288 288 288 288 287 287 288 289 289 289 288 289 290 291 292 292 291
224 222 220 223 227 232 237 234 228 228 232 234 236 238 238 237 235 233 235 239 243 247 251 253 253 254 256 257 257 256 254 252 252 253 254 256 258 260 261 262 263 263 264 264 265 265 265 266 267 268 268 270 272 273 274 275 275 276 277 278 279 280 282 284 285 286 287 287 287 287 287 287 287 286 286 287 288 289 288 288 289 290 292 293 293 292 291
224 223 220 220 224 230 234 230 221 219 225 229 231 236 239 235 230 227 229 234 237 240 244 246 248 249 250 250 249 249 249 251 252 253 255 256 257 259 261 261 261 262 262 262 263 264 265 266 267 269 270 272 273 275 275 276 277 278 280 281 281 282 283 284 285 286 286 284 283 285 287 287 286 286 286 286 287 286 286 287 288 290 291 291 291 290 290
218 219 215 215 219 223 223 219 213 214 219 223 223 225 224 219 216 217 220 223 225 229 233 237 241 243 244 243 244 246 248 250 252 253 255 257 258 259 260 260 261 262 262 263 264 266 267 269 270 272 273 274 275 276 277 278 279 281 282 283 283 284 284 285 286 287 284 281 282 285 287 287 286 285 286 286 287 287 287 288 289 289 289 289 289 289 290
199 202 200 201 205 208 207 205 205 209 214 215 212 208 204 204 212 222 230 231 230 231 234 236 239 242 243 243 245 247 248 250 252 254 256 257 258 259 260 261 263 264 265 266 267 269 270 271 273 274 276 277 278 279 281 282 282 283 284 283 283 285 286 287 288 287 285 283 284 286 286 286 287 288 289 289 288 288 288 288 288 288 288 289 290 290 291
174 179 182 187 192 196 198 201 203 208 212 210 206 206 212 221 232 241 241 238 237 237 237 238 240 241 243 245 247 249 251 252 254 255 256 258 259 260 262 264 265 266 268 269 270 271 272 273 275 277 278 279 280 281 283 283 283 283 283 283 285 287 288 288 288 286 285 284 285 285 286 287 288 289 289 288 288 288 288 287 287 288 289 290 291 291 291
165 165 166 173 182 192 203 209 211 216 221 221 219 222 227 230 232 233 233 235 238 240 241 243 244 246 248 250 251 252 254 255 256 257 259 260 262 263 264 266 267 268 270 271 272 273 274 276 277 279 279 280 281 281 282 282 282 282 282 283 285 286 285 284 283 283 282 282 282 284 286 288 288 288 287 287 286 287 287 287 288 289 290 290 290 291 292
177 170 167 173 185 195 205 214 219 223 226 226 226 227 227 228 231 235 237 240 243 245 248 250 251 252 254 255 255 257 258 259 260 261 262 263 264 265 266 267 268 269 271 272 273 275 276 277 278 278 279 280 280 280 281 281 281 281 282 283 283 283 282 281 280 279 278 278 280 284 286 286 286 287 287 288 288 288 288 288 288 288 288 289 290 291 291
201 205 209 211 213 214 217 221 225 228 231 234 236 238 240 243 246 248 250 252 254 255 256 258 258 259 260 260 261 262 262 262 263 264 265 266 267 268 269 270 271 272 274 275 276 277 278 278 279 279 280 281 281 281 281 280 280 280 281 282 281 281 280 279 278 277 277 278 280 283 284 285 286 289 290 291 290 289 288 287 287 287 287 288 289 289 288
208 212 217 219 221 223 225 228 232 235 237 240 243 246 249 252 254 256 258 259 260 261 261 262 262 262 263 263 264 264 265 266 267 268 269 270 271 272 274 275 276 277 279 279 280 281 281 282 282 283 283 283 282 282 281 280 280 280 280 279 278 277 277 277 278 280 280 280 280 282 284 286 288 289 290 289 287 286 286 285 285 286 286 286 286 286 286
214 218 223 226 230 232 234 236 239 242 243 245 247 249 252 254 256 258 260 261 262 262 263 263 263 264 265 266 267 268 269 270 271 272 273 274 275 277 278 279 281 282 283 284 284 285 285 285 285 285 285 285 284 283 282 282 281 280 277 273 271 272 275 279 283 283 281 281 284 286 287 287 286 286 286 285 284 284 284 284 284 284 284 284 285 286 287
223 226 231 234 238 242 243 244 245 246 247 249 251 252 254 256 258 260 262 264 265 266 267 268 268 269 270 271 272 273 274 275 276 277 278 279 280 281 282 283 284 284 285 285 285 285 285 286 286 286 286 285 285 284 283 283 282 280 276 272 270 270 273 278 281 282 281 283 286 288 287 286 284 283 282 281 281 282 282 282 282 282 283 284 285 287 289
232 234 236 238 241 245 248 250 252 253 254 255 257 259 261 263 264 265 266 267 267 268 269 270 271 272 273 275 276 277 278 279 280 281 281 282 282 283 283 283 284 284 284 284 284 284 284 285 285 285 285 285 285 285 285 284 281 278 275 273 271 271 274 278 281 283 283 285 286 287 286 284 283 282 282 282 282 281 281 281 281 282 284 286 287 289 291
239 240 241 244 246 249 252 255 257 260 261 264 265 267 267 268 268 267 267 267 268 269 270 272 273 274 275 277 278 279 280 281 281 282 282 283 283 284 284 284 284 284 284 284 284 284 285 285 286 286 287 288 288 287 287 286 283 279 277 275 273 273 275 278 280 282 283 285 286 287 287 286 285 284 283 282 281 280 279 280 282 284 286 287 288 289 290
243 244 246 248 250 253 256 259 262 266 269 271 272 272 272 272 272 271 271 271 272 273 274 275 277 278 279 279 280 281 282 282 282 282 283 283 283 283 283 284 284 284 285 285 285 285 286 287 289 290 291 291 291 290 289 287 285 282 279 276 275 275 276 277 279 280 281 283 284 285 286 286 285 283 281 279 278 278 279 281 284 285 287 287 288 289 289
248 250 252 254 257 260 263 266 269 272 273 275 275 276 276 276 276 277 278 278 279 280 280 281 281 282 282 283 283 283 283 282 282 282 282 282 281 281 282 282 282 283 283 284 285 286 287 289 290 291 292 292 293 293 293 291 288 285 282 279 278 277 277 276 276 277 278 279 280 281 282 283 282 280 279 278 278 280 282 283 284 285 286 287 287 286 285
254 256 259 262 266 269 270 272 273 274 275 276 277 278 278 279 280 281 282 283 284 284 284 284 284 283 283 282 282 281 281 281 280 280 279 279 279 279 278 278 278 279 281 283 285 286 287 288 289 290 291 292 293 294 295 294 292 289 287 283 280 278 276 276 275 276 277 278 279 280 280 281 281 281 281 281 282 283 283 283 284 285 285 284 281 278 279
256 259 262 265 268 271 272 273 274 274 275 277 277 277 278 279 280 281 282 283 283 282 282 281 280 279 279 278 277 277 277 276 276 275 275 274 274 274 274 274 276 278 280 282 283 284 284 285 286 286 287 288 289 290 290 289 288 285 283 280 278 277 277 276 277 277 278 278 279 280 281 282 283 283 283 283 283 283 283 283 284 284 282 278 274 275 278
258 260 262 264 266 267 269 271 272 273 275 276 276 277 278 279 280 281 281 281 281 280 279 279 278 277 276 275 274 274 273 273 272 271 271 271 271 272 274 275 277 279 281 282 283 283 283 282 282 283 284 284 285 285 285 284 283 281 280 278 278 277 277 277 278 279 280 280 281 282 283 284 285 285 285 284 283 283 283 284 283 281 277 274 274 278 281
261 264 264 265 267 269 270 271 273 274 276 277 278 279 280 280 280 280 279 279 278 278 278 277 277 275 274 273 272 272 272 271 271 271 271 272 273 275 277 279 280 282 282 282 282 282 282 282 282 282 282 283 282 282 282 282 282 281 281 280 279 279 280 280 281 282 282 283 283 284 285 287 287 287 287 286 286 285 285 284 281 278 276 276 278 282 285
260 264 266 268 271 272 273 275 276 276 277 279 279 280 280 279 278 278 277 276 276 275 275 274 273 273 272 273 273 272 272 272 272 272 273 274 275 277 278 279 280 281 281 281 281 281 281 281 282 282 282 282 282 282 282 283 283 283 282 282 282 282 282 283 283 283 283 283 284 285 287 288 288 288 288 288 288 288 287 284 281 278 277 278 280 283 285
259 262 264 267 270 272 274 275 276 277 278 279 279 278 278 277 276 274 273 271 270 270 270 270 270 271 271 271 271 271 271 272 272 272 273 275 276 277 278 278 279 279 279 280 280 280 280 280 280 281 281 281 282 282 283 283 283 283 283 283 282 282 282 282 282 283 283 284 286 287 288 289 288 288 288 288 288 287 286 284 282 280 280 280 282 284 285
258 261 264 267 269 271 273 274 275 276 276 277 276 275 274 273 273 271 270 267 265 264 265 266 267 268 269 269 269 270 270 271 271 272 273 275 276 277 278 279 279 279 279 279 279 279 279 279 279 280 280 280 281 282 282 282 282 283 283 283 282 282 282 282 283 284 284 285 286 287 287 287 287 286 285 285 285 285 284 283 282 281 281 281 282 283 284
260 262 265 267 268 269 270 271 272 273 273 272 271 269 267 267 267 267 267 267 266 265 265 265 266 267 268 269 270 271 272 273 274 274 275 275 276 277 277 278 278 278 277 277 276 276 276 277 277 278 278 279 279 280 280 281 281 281 282 282 282 282 283 284 284 283 283 284 285 285 286 287 287 286 286 286 285 285 284 284 283 282 281 280 281 281 282
267 268 269 269 268 268 268 267 268 269 269 269 267 265 264 264 265 266 267 267 268 267 267 267 267 268 269 271 272 274 275 276 276 277 277 277 276 275 274 275 275 276 276 276 276 275 275 275 276 276 277 277 278 279 279 280 280 280 281 281 282 283 284 284 284 284 284 285 286 287 287 288 288 289 289 288 287 287 286 286 285 284 283 282 281 281 281
Height
5780 5785 5787 5788 5789 5790 5793 5796 5799 5802 5805 5806 5808 5810 5815 5819 5818 5819 5827 5833 5833 5837 5843 5847 5850 5854 5856 5860 5863 5865 5866 5868 5868 5869 5870 5871 5872 5872 5873 5874 5874 5874 5875 5875 5876 5876 5876 5876 5876 5875 5875 5875 5875 5875 5874 5874 5873 5873 5872 5872 5871 5870 5870 5869 5869 5868 5866 5862 5856 5856 5858 5859 5859 5858 5857 5855 5854 5853 5852 5851 5850 5849 5849 5848 5847 5846 5846
5776 5780 5782 5783 5784 5784 5786 5790 5793 5797 5799 5801 5803 5807 5812 5814 5815 5819 5824 5827 5829 5834 5839 5843 5847 5850 5853 5856 5858 5860 5862 5864 5865 5866 5867 5868 5869 5870 5870 5871 5871 5872 5872 5872 5873 5873 5873 5873 5873 5873 5873 5872 5872 5872 5872 5871 5871 5870 5870 5870 5869 5868 5867 5867 5865 5864 5863 5858 5853 5853 5856 5857 5855 5854 5853 5852 5850 5849 5848 5847 5845 5844 5844 5843 5842 5841 5841
5771 5775 5777 5778 5779 5780 5781 5783 5787 5791 5794 5796 5799 5802 5806 5809 5812 5816 5819 5820 5823 5830 5835 5839 5842 5845 5849 5851 5853 5856 5858 5859 5861 5862 5864 5865 5866 5867 5867 5868 5868 5869 5869 5869 5870 5870 5870 5870 5870 5870 5870 5870 5870 5869 5869 5869 5868 5868 5868 5868 5867 5866 5865 5864 5862 5860 5858 5855 5853 5853 5854 5854 5852 5851 5850 5848 5846 5844 5843 5842 5840 5840 5839 5838 5838 5837 5837
5767 5771 5772 5772 5774 5775 5775 5777 5781 5784 5787 5790 5793 5797 5800 5804 5808 5811 5813 5814 5818 5826 5831 5834 5836 5840 5844 5847 5849 5852 5854 5855 5857 5859 5860 5862 5862 5863 5864 5865 5865 5865 5865 5866 5866 5867 5867 5866 5866 5866 5866 5866 5866 5866 5866 5866 5865 5865 5865 5865 5864 5863 5862 5861 5859 5856 5854 5853 5851 5849 5849 5849 5849 5848 5846 5845 5842 5840 5839 5837 5835 5835 5834 5833 5833 5833 5833
5763 5766 5767 5767 5769 5768 5767 5771 5777 5780 5783 5786 5789 5792 5795 5799 5803 5805 5806 5809 5816 5823 5827 5829 5832 5836 5840 5843 5845 5847 5850 5852 5854 5855 5857 5858 5859 5860 5861 5861 5862 5861 5862 5863 5863 5863 5863 5863 5862 5862 5862 5862 5862 5862 5862 5862 5862 5862 5862 5861 5861 5860 5858 5857 5855 5853 5851 5849 5846 5844 5844 5844 5844 5843 5842 5840 5838 5836 5834 5832 5831 5830 5829 5829 5829 5828 5828
5759 5761 5762 5763 5762 5761 5764 5772 5777 5777 5779 5781 5784 5786 5790 5794 5798 5800 5803 5808 5813 5818 5822 5825 5829 5833 5836 5839 5842 5843 5846 5848 5850 5852 5854 5855 5856 5857 5857 5858 5858 5857 5858 5859 5859 5859 5859 5858 5858 5858 5858 5858 5858 5858 5858 5858 5858 5858 5858 5857 5857 5856 5855 5853 5851 5849 5847 5845 5842 5841 5840 5839 5839 5838 5837 5835 5833 5831 5829 5827 5826 5825 5824 5824 5824 5823 5823
5755 5757 5759 5759 5757 5759 5766 5772 5773 5773 5776 5778 5780 5783 5786 5790 5793 5796 5800 5805 5809 5813 5818 5822 5825 5828 5832 5834 5837 5839 5841 5843 5845 5848 5850 5851 5852 5853 5853 5854 5854 5853 5854 5854 5854 5853 5853 5853 5853 5854 5854 5854 5854 5854 5854 5854 5854 5854 5854 5853 5852 5851 5850 5849 5847 5845 5843 5840 5838 5836 5836 5835 5835 5834 5832 5831 5829 5826 5825 5823 5821 5820 5819 5819 5820 5819 5818
5751 5753 5754 5754 5754 5758 5764 5767 5768 5771 5773 5774 5776 5778 5781 5784 5789 5792 5797 5802 5807 5810 5814 5818 5821 5824 5827 5829 5831 5834 5836 5838 5841 5843 5845 5847 5848 5848 5848 5849 5849 5849 5849 5849 5848 5848 5848 5848 5849 5850 5850 5850 5850 5850 5850 5850 5850 5850 5849 5848 5847 5846 5844 5843 5841 5839 5838 5836 5832 5831 5831 5830 5830 5829 5827 5826 5824 5822 5820 5818 5816 5815 5815 5815 5815 5815 5814
5746 5748 5749 5749 5752 5757 5760 5763 5765 5767 5769 5771 5773 5774 5777 5781 5785 5789 5794 5800 5804 5807 5811 5814 5817 5820 5822 5824 5827 5829 5832 5834 5836 5838 5840 5842 5843 5843 5843 5843 5843 5843 5843 5843 5842 5842 5842 5844 5845 5846 5846 5846 5846 5846 5846 5846 5845 5845 5844 5843 5842 5841 5839 5838 5836 5834 5832 5830 5827 5826 5826 5825 5824 5823 5821 5821 5820 5818 5816 5813 5811 5810 5810 5810 5811 5811 5810
5739 5742 5744 5746 5750 5754 5758 5760 5762 5765 5766 5769 5771 5771 5773 5777 5781 5786 5792 5797 5801 5804 5808 5810 5813 5815 5817 5819 5823 5826 5828 5830 5832 5834 5836 5837 5837 5838 5837 5837 5838 5838 5838 5837 5837 5838 5839 5840 5841 5841 5842 5842 5842 5842 5842 5841 5841 5840 5839 5838 5837 5836 5834 5832 5830 5828 5827 5824 5821 5821 5821 5819 5817 5817 5816 5815 5814 5812 5810 5808 5806 5805 5805 5806 5806 5806 5806
5735 5737 5739 5742 5746 5751 5754 5757 5759 5762 5764 5767 5768 5767 5768 5773 5779 5784 5790 5795 5798 5801 5804 5806 5809 5811 5813 5816 5819 5822 5824 5826 5828 5829 5831 5832 5832 5832 5832 5832 5833 5833 5833 5833 5833 5834 5835 5836 5836 5837 5837 5838 5838 5838 5837 5837 5836 5835 5833 5832 5831 5830 5828 5826 5824 5822 5821 5818 5815 5814 5814 5813 5812 5812 5810 5809 5808 5806 5803 5801 5800 5800 5800 5801 5801 5801 5800
5732 5734 5735 5738 5743 5746 5750 5753 5756 5759 5761 5764 5764 5762 5765 5772 5778 5782 5787 5792 5795 5798 5800 5803 5805 5808 5810 5813 5816 5818 5820 5821 5823 5824 5825 5826 5827 5827 5827 5828 5828 5828 5829 5829 5829 5830 5830 5831 5832 5832 5833 5833 5833 5833 5832 5832 5831 5829 5828 5827 5825 5823 5822 5820 5818 5816 5815 5813 5809 5807 5808 5808 5807 5805 5804 5803 5802 5800 5797 5796 5795 5795 5795 5796 5796 5795 5794
5729 5731 5733 5736 5739 5742 5746 5749 5752 5756 5758 5759 5759 5760 5765 5772 5776 5779 5784 5788 5791 5794 5796 5798 5801 5803 5806 5809 5811 5813 5815 5816 5817 5819 5820 5821 5822 5823 5823 5823 5823 5824 5825 5825 5825 5825 5826 5827 5828 5828 5828 5828 5828 5828 5827 5826 5825 5824 5822 5821 5819 5817 5815 5813 5811 5810 5808 5806 5803 5801 5801 5800 5800 5799 5798 5797 5796 5794 5791 5791 5791 5792 5791 5791 5791 5790 5788
5725 5728 5730 5733 5735 5738 5742 5746 5749 5752 5754 5755 5757 5760 5764 5768 5772 5776 5780 5784 5787 5790 5792 5794 5797 5799 5802 5805 5806 5808 5810 5811 5813 5815 5816 5816 5817 5818 5818 5819 5819 5820 5821 5821 5821 5822 5822 5823 5823 5823 5823 5823 5822 5822 5821 5820 5819 5818 5816 5814 5812 5810 5808 5806 5805 5804 5802 5800 5798 5796 5795 5794 5793 5792 5791 5790 5789 5787 5786 5786 5787 5786 5785 5785 5785 5784 5782
5722 5724 5727 5729 5731 5735 5739 5742 5745 5747 5749 5752 5755 5758 5760 5764 5768 5772 5776 5780 5783 5785 5788 5790 5793 5795 5798 5800 5802 5803 5805 5807 5808 5809 5810 5811 5812 5813 5813 5814 5815 5816 5817 5817 5818 5818 5818 5818 5818 5818 5817 5817 5816 5816 5815 5814 5813 5812 5810 5808 5806 5804 5802 5800 5799 5798 5796 5794 5792 5791 5790 5788 5787 5786 5785 5784 5783 5781 5781 5782 5781 5781 5781 5781 5780 5778 5777
5718 5719 5722 5725 5728 5731 5735 5738 5741 5743 5745 5748 5751 5754 5757 5760 5764 5768 5772 5776 5779 5781 5783 5786 5788 5790 5793 5795 5797 5799 5800 5802 5803 5804 5804 5806 5807 5807 5808 5809 5810 5811 5812 5812 5812 5812 5812 5812 5812 5812 5811 5810 5810 5809 5808 5807 5806 5805 5803 5801 5799 5797 5795 5794 5793 5792 5791 5789 5788 5787 5785 5784 5782 5781 5779 5778 5778 5777 5777 5777 5777 5777 5776 5775 5774 5772 5771
5714 5717 5719 5722 5725 5727 5730 5733 5736 5738 5741 5744 5747 5751 5754 5757 5760 5764 5768 5771 5774 5777 5779 5782 5784 5786 5789 5790 5792 5794 5795 5796 5797 5797 5798 5799 5801 5802 5803 5804 5804 5805 5805 5806 5806 5806 5807 5807 5806 5806 5805 5804 5803 5801 5800 5800 5799 5798 5796 5794 5792 5790 5788 5787 5787 5786 5786 5784 5783 5783 5781 5780 5778 5776 5773 5773 5774 5774 5773 5773 5773 5772 5771 5769 5768 5767 5765
5711 5714 5717 5720 5722 5723 5724 5728 5731 5733 5736 5739 5742 5746 5750 5753 5756 5760 5763 5766 5769 5772 5774 5777 5779 5781 5783 5785 5787 5788 5790 5791 5791 5792 5793 5794 5796 5797 5798 5798 5799 5800 5800 5801 5801 5801 5801 5801 5800 5799 5798 5797 5796 5794 5793 5792 5792 5791 5790 5788 5786 5784 5782 5781 5781 5781 5781 5780 5779 5779 5778 5776 5775 5773 5770 5769 5769 5769 5769 5768 5768 5767 5765 5764 5763 5762 5760
5708 5711 5714 5718 5719 5719 5720 5724 5728 5730 5733 5735 5737 5741 5745 5748 5751 5755 5759 5761 5764 5766 5768 5771 5773 5776 5778 5780 5781 5783 5784 5785 5786 5788 5789 5790 5791 5792 5793 5793 5794 5795 5796 5796 5796 5796 5795 5794 5793 5791 5791 5790 5788 5787 5786 5785 5785 5785 5784 5783 5781 5779 5777 5777 5776 5776 5776 5775 5774 5774 5773 5773 5773 5771 5769 5768 5766 5763 5763 5762 5761 5761 5760 5760 5759 5758 5756
5704 5708 5711 5714 5715 5715 5717 5721 5724 5727 5730 5732 5733 5736 5740 5744 5747 5750 5753 5756 5758 5760 5763 5765 5768 5770 5772 5774 5776 5777 5779 5780 5781 5783 5784 5786 5787 5787 5788 5788 5789 5790 5790 5790 5790 5790 5788 5786 5785 5785 5784 5783 5782 5780 5779 5779 5779 5778 5777 5777 5776 5774 5773 5772 5771 5771 5770 5769 5769 5769 5768 5768 5768 5766 5765 5765 5763 5760 5758 5757 5756 5756 5755 5755 5754 5753 5752
5699 5703 5706 5709 5711 5712 5714 5717 5720 5723 5726 5729 5730 5732 5735 5739 5743 5745 5748 5750 5752 5754 5756 5759 5762 5764 5766 5768 5769 5771 5773 5775 5777 5778 5779 5781 5781 5782 5783 5783 5784 5784 5784 5784 5783 5782 5781 5780 5780 5780 5779 5778 5777 5775 5773 5772 5772 5772 5771 5771 5771 5769 5768 5767 5767 5765 5764 5763 5763 5763 5763 5763 5762 5761 5759 5759 5758 5756 5754 5753 5752 5751 5751 5750 5749 5748 5746
5694 5698 5702 5705 5708 5710 5711 5714 5717 5720 5722 5724 5727 5728 5730 5733 5737 5740 5742 5744 5746 5748 5751 5753 5756 5757 5758 5760 5762 5764 5767 5770 5772 5773 5774 5775 5776 5777 5777 5778 5778 5778 5777 5777 5776 5776 5776 5775 5775 5775 5774 5773 5772 5770 5767 5766 5766 5766 5766 5766 5766 5764 5763 5763 5762 5760 5759 5758 5758 5757 5757 5756 5755 5755 5754 5753 5752 5751 5749 5748 5748 5747 5746 5745 5744 5743 5741
5690 5693 5697 5701 5705 5708 5709 5711 5714 5716 5717 5719 5722 5723 5725 5727 5730 5733 5736 5740 5742 5744 5746 5748 5749 5751 5752 5754 5757 5760 5762 5764 5766 5767 5768 5769 5770 5771 5771 5771 5771 5771 5771 5770 5770 5770 5770 5770 5770 5770 5769 5768 5766 5764 5763 5761 5761 5761 5761 5761 5760 5760 5759 5758 5756 5755 5754 5753 5752 5750 5750 5750 5749 5749 5748 5748 5746 5745 5744 5743 5743 5742 5741 5740 5739 5737 5736
5688 5690 5693 5697 5701 5704 5707 5709 5710 5711 5712 5715 5718 5720 5721 5723 5725 5726 5730 5734 5737 5739 5741 5743 5744 5746 5748 5751 5753 5755 5757 5758 5760 5761 5762 5763 5764 5765 5765 5765 5765 5765 5765 5765 5765 5765 5765 5764 5764 5764 5763 5762 5760 5759 5757 5756 5756 5756 5756 5755 5755 5755 5754 5752 5750 5750 5749 5749 5748 5746 5745 5744 5744 5744 5743 5742 5741 5740 5739 5738 5738 5737 5735 5734 5733 5731 5729
5685 5687 5689 5693 5697 5700 5702 5704 5707 5708 5709 5711 5714 5716 5718 5720 5722 5724 5726 5729 5732 5734 5736 5738 5740 5742 5745 5747 5748 5750 5752 5753 5754 5756 5757 5758 5758 5759 5759 5759 5759 5759 5759 5759 5759 5759 5759 5758 5757 5757 5756 5755 5754 5753 5752 5752 5751 5751 5750 5750 5750 5750 5749 5747 5745 5744 5744 5743 5743 5742 5741 5740 5739 5738 5737 5736 5735 5734 5733 5733 5732 5731 5729 5728 5726 5724 5723
5683 5684 5686 5688 5692 5694 5696 5698 5702 5705 5707 5709 5711 5713 5715 5717 5718 5720 5723 5725 5727 5730 5732 5734 5736 5738 5740 5742 5744 5745 5747 5748 5749 5750 5751 5752 5752 5753 5753 5753 5753 5753 5753 5753 5753 5753 5752 5751 5751 5750 5750 5749 5749 5748 5748 5747 5746 5746 5745 5744 5744 5744 5743 5742 5740 5739 5738 5737 5736 5735 5734 5733 5732 5731 5730 5729 5729 5728 5727 5726 5725 5724 5723 5721 5720 5719 5717
5680 5681 5683 5685 5686 5689 5691 5693 5695 5698 5701 5704 5707 5709 5711 5713 5714 5716 5719 5721 5723 5725 5728 5730 5732 5733 5735 5736 5738 5740 5741 5742 5743 5744 5745 5746 5746 5747 5747 5747 5747 5747 5747 5747 5747 5746 5745 5745 5744 5744 5744 5744 5744 5743 5743 5742 5741 5740 5739 5739 5738 5737 5736 5736 5735 5734 5733 5732 5731 5729 5728 5727 5726 5725 5725 5724 5723 5723 5721 5720 5719 5717 5716 5715 5714 5713 5711
5676 5678 5680 5681 5683 5684 5686 5688 5690 5693 5696 5698 5701 5704 5707 5709 5711 5713 5715 5716 5718 5721 5724 5725 5727 5728 5730 5731 5733 5734 5736 5737 5738 5739 5740 5741 5741 5741 5741 5741 5741 5741 5741 5741 5740 5740 5740 5740 5739 5739 5739 5738 5737 5737 5736 5736 5735 5734 5733 5733 5732 5731 5730 5729 5728 5727 5726 5726 5724 5723 5722 5722 5721 5720 5720 5719 5718 5716 5715 5714 5713 5711 5710 5709 5708 5707 5705
5672 5675 5676 5677 5680 5682 5684 5685 5687 5689 5692 5695 5697 5699 5702 5705 5706 5709 5711 5713 5714 5717 5719 5720 5722 5723 5725 5726 5728 5729 5731 5732 5733 5734 5735 5735 5735 5735 5735 5735 5735 5735 5735 5735 5735 5735 5735 5735 5734 5734 5733 5732 5731 5731 5730 5729 5728 5728 5727 5727 5726 5725 5724 5723 5722 5721 5720 5720 5719 5718 5717 5717 5716 5715 5714 5713 5711 5710 5709 5708 5707 5706 5704 5703 5702 5701 5699
5668 5670 5672 5675 5678 5680 5681 5682 5684 5686 5689 5691 5693 5694 5697 5699 5701 5704 5706 5708 5710 5712 5714 5715 5717 5719 5721 5722 5723 5724 5726 5727 5728 5728 5729 5729 5729 5729 5729 5730 5730 5730 5730 5730 5731 5730 5730 5729 5728 5728 5727 5726 5726 5725 5724 5723 5722 5721 5721 5720 5719 5719 5718 5717 5717 5716 5715 5714 5714 5713 5712 5711 5710 5709 5707 5706 5705 5704 5703 5702 5701 5700 5699 5698 5696 5695 5693
5663 5664 5667 5670 5673 5674 5675 5678 5680 5683 5684 5685 5687 5688 5691 5694 5698 5701 5703 5704 5706 5708 5710 5712 5713 5715 5717 5718 5719 5719 5720 5721 5721 5722 5723 5723 5724 5724 5725 5725 5725 5725 5725 5725 5725 5725 5724 5723 5722 5721 5721 5720 5719 5718 5717 5716 5715 5715 5714 5713 5712 5711 5711 5711 5711 5710 5710 5709 5708 5707 5706 5704 5703 5702 5701 5700 5699 5698 5697 5696 5695 5694 5693 5691 5690 5689 5687
5658 5660 5661 5663 5666 5668 5670 5673 5676 5678 5680 5681 5683 5686 5689 5692 5695 5698 5700 5702 5703 5705 5706 5708 5709 5711 5712 5713 5714 5715 5716 5716 5716 5717 5717 5718 5719 5719 5719 5720 5720 5720 5720 5720 5719 5719 5718 5717 5716 5715 5714 5713 5712 5712 5710 5709 5709 5709 5708 5706 5705 5704 5704 5704 5704 5703 5702 5701 5700 5699 5698 5697 5696 5695 5694 5694 5693 5692 5691 5690 5689 5687 5686 5685 5683 5682 5680
5656 5657 5658 5660 5662 5665 5667 5670 5672 5676 5679 5681 5682 5684 5687 5690 5692 5694 5697 5698 5700 5702 5703 5704 5705 5706 5708 5709 5710 5710 5711 5711 5712 5712 5713 5713 5714 5714 5714 5714 5714 5714 5714 5713 5713 5712 5711 5710 5710 5709 5708 5707 5706 5705 5704 5703 5703 5702 5701 5700 5699 5698 5698 5697 5696 5695 5694 5693 5692 5691 5690 5690 5689 5689 5688 5687 5687 5686 5685 5684 5683 5681 5680 5678 5677 5676 5674
5654 5655 5657 5659 5661 5663 5666 5668 5671 5674 5677 5679 5681 5683 5685 5687 5689 5692 5694 5695 5697 5698 5699 5700 5701 5702 5703 5704 5705 5706 5706 5707 5707 5708 5708 5708 5709 5709 5709 5708 5708 5708 5707 5707 5706 5705 5704 5704 5703 5702 5701 5700 5699 5699 5698 5697 5696 5696 5695 5694 5694 5693 5692 5691 5690 5688 5687 5686 5686 5685 5684 5684 5683 5683 5682 5681 5681 5679 5678 5677 5676 5675 5673 5672 5671 5669 5668
5653 5654 5656 5658 5661 5663 5665 5668 5670 5672 5674 5676 5678 5680 5682 5684 5686 5688 5690 5691 5693 5694 5695 5696 5697 5698 5699 5700 5700 5701 5701 5701 5702 5702 5702 5703 5703 5703 5703 5702 5702 5701 5701 5700 5699 5698 5698 5697 5697 5696 5695 5694 5693 5692 5691 5691 5690 5689 5689 5688 5688 5686 5685 5684 5683 5682 5681 5681 5680 5680 5679 5679 5678 5677 5676 5675 5674 5673 5672 5670 5669 5668 5667 5666 5665 5663 5662
5654 5656 5657 5659 5661 5663 5665 5667 5669 5671 5673 5674 5676 5677 5679 5681 5682 5684 5685 5687 5688 5689 5690 5691 5692 5693 5694 5694 5695 5695 5695 5695 5696 5696 5696 5696 5696 5696 5696 5695 5695 5694 5694 5693 5693 5692 5691 5691 5690 5689 5688 5687 5687 5686 5685 5684 5684 5683 5682 5682 5681 5679 5678 5677 5676 5676 5676 5675 5675 5674 5674 5673 5672 5671 5670 5669 5668 5667 5665 5664 5663 5662 5661 5660 5659 5658 5657
5655 5656 5658 5659 5661 5663 5665 5667 5668 5670 5671 5673 5674 5675 5676 5677 5678 5680 5681 5682 5683 5685 5685 5686 5687 5688 5688 5689 5689 5689 5689 5689 5690 5690 5690 5690 5690 5689 5689 5688 5688 5687 5687 5686 5686 5685 5685 5684 5683 5682 5682 5681 5680 5679 5678 5677 5677 5677 5676 5675 5674 5673 5671 5671 5670 5670 5670 5670 5670 5669 5668 5667 5666 5665 5664 5663 5662 5661 5660 5659 5658 5657 5656 5655 5654 5653 5652
5654 5655 5657 5658 5660 5662 5664 5665 5667 5668 5669 5670 5672 5673 5674 5675 5676 5677 5678 5679 5679 5680 5681 5681 5682 5683 5683 5683 5683 5683 5683 5683 5683 5683 5683 5683 5683 5682 5682 5682 5681 5681 5680 5680 5679 5678 5678 5677 5676 5676 5675 5674 5673 5672 5671 5671 5670 5670 5670 5669 5668 5667 5666 5665 5665 5666 5666 5665 5665 5664 5663 5661 5660 5659 5658 5657 5656 5655 5654 5653 5653 5652 5651 5650 5649 5648 5647
5652 5653 5655 5656 5658 5660 5661 5663 5664 5666 5667 5668 5669 5670 5671 5672 5673 5674 5674 5675 5675 5676 5676 5676 5677 5677 5677 5677 5677 5677 5677 5677 5677 5677 5677 5676 5676 5676 5676 5676 5675 5675 5674 5674 5673 5673 5672 5671 5671 5670 5669 5668 5667 5666 5665 5664 5664 5664 5663 5662 5662 5662 5661 5661 5661 5661 5660 5660 5659 5658 5657 5655 5654 5653 5652 5651 5650 5650 5649 5648 5648 5647 5646 5645 5644 5643 5643
5650 5651 5653 5654 5656 5657 5659 5660 5662 5663 5664 5665 5666 5667 5668 5669 5669 5670 5670 5670 5670 5671 5671 5671 5672 5672 5672 5672 5672 5672 5671 5671 5671 5671 5671 5671 5670 5670 5670 5670 5670 5669 5669 5669 5668 5668 5667 5666 5665 5664 5663 5662 5661 5660 5659 5659 5659 5658 5657 5656 5656 5656 5656 5655 5655 5655 5654 5654 5653 5652 5651 5650 5649 5647 5647 5646 5645 5645 5644 5644 5643 5642 5641 5641 5640 5639 5638
5648 5650 5651 5652 5654 5655 5656 5657 5658 5660 5661 5662 5662 5663 5664 5664 5665 5665 5665 5665 5666 5666 5666 5666 5666 5666 5666 5666 5666 5666 5666 5666 5666 5666 5666 5665 5665 5665 5665 5664 5664 5664 5664 5663 5663 5663 5662 5661 5660 5659 5658 5657 5656 5655 5654 5653 5653 5652 5651 5651 5651 5651 5651 5650 5650 5649 5649 5648 5647 5646 5645 5644 5643 5642 5641 5641 5640 5640 5640 5639 5638 5638 5637 5636 5635 5635 5634
5646 5648 5649 5651 5652 5653 5653 5654 5655 5656 5656 5657 5657 5658 5658 5659 5659 5660 5660 5660 5660 5660 5660 5660 5661 5661 5661 5661 5661 5661 5661 5661 5661 5661 5661 5660 5660 5660 5660 5660 5659 5659 5659 5658 5658 5657 5657 5656 5655 5654 5653 5652 5651 5650 5649 5648 5648 5647 5646 5646 5646 5646 5646 5645 5645 5644 5644 5643 5642 5641 5640 5638 5638 5637 5637 5636 5636 5636 5635 5634 5634 5633 5632 5632 5631 5631 5630
5644 5646 5647 5648 5649 5650 5651 5651 5651 5652 5652 5652 5652 5653 5653 5654 5654 5654 5655 5655 5655 5655 5655 5656 5656 5656 5656 5656 5656 5657 5656 5656 5656 5656 5656 5656 5656 5656 5656 5656 5655 5655 5654 5654 5653 5653 5652 5651 5650 5649 5648 5647 5646 5646 5645 5644 5643 5643 5642 5642 5641 5641 5641 5641 5640 5639 5639 5638 5637 5636 5635 5635 5634 5633 5633 5632 5632 5631 5631 5630 5630 5629 5628 5628 5627 5627 5627
5643 5644 5645 5646 5646 5647 5647 5648 5648 5648 5648 5649 5649 5650 5650 5651 5651 5651 5651 5651 5651 5652 5652 5652 5652 5652 5652 5652 5652 5652 5652 5652 5652 5652 5652 5652 5652 5652 5652 5652 5651 5651 5650 5650 5649 5648 5647 5646 5645 5645 5644 5643 5642 5641 5640 5639 5639 5638 5638 5637 5637 5637 5636 5636 5635 5635 5634 5633 5633 5632 5631 5631 5630 5630 5629 5629 5628 5627 5627 5626 5626 5625 5624 5624 5624 5623 5623
5642 5642 5643 5644 5644 5644 5645 5645 5645 5646 5646 5647 5647 5648 5648 5648 5649 5648 5648 5648 5648 5648 5648 5648 5648 5648 5648 5648 5648 5648 5648 5648 5648 5648 5648 5648 5648 5648 5648 5647 5647 5646 5646 5645 5644 5644 5643 5642 5641 5640 5639 5638 5638 5637 5636 5635 5635 5634 5634 5633 5633 5633 5632 5632 5631 5631 5630 5629 5629 5628 5628 5627 5626 5626 5625 5624 5624 5623 5623 5622 5621 5621 5620 5620 5620 5620 5620
5639 5640 5641 5641 5642 5642 5643 5643 5644 5644 5644 5645 5645 5645 5645 5645 5645 5645 5645 5644 5644 5644 5645 5645 5645 5645 5645 5645 5645 5645 5645 5645 5644 5644 5644 5644 5644 5643 5643 5643 5642 5642 5641 5641 5640 5639 5638 5637 5636 5635 5635 5634 5633 5633 5632 5631 5631 5631 5630 5630 5629 5629 5628 5628 5627 5627 5626 5625 5625 5624 5623 5623 5622 5622 5621 5620 5620 5619 5618 5618 5617 5617 5617 5617 5617 5616 5616
5637 5637 5638 5639 5639 5640 5640 5640 5641 5641 5641 5642 5642 5642 5641 5641 5641 5641 5641 5641 5641 5641 5641 5641 5641 5641 5641 5641 5641 5641 5641 5640 5640 5640 5639 5639 5639 5638 5638 5638 5637 5637 5636 5636 5635 5634 5634 5633 5632 5631 5630 5630 5629 5629 5628 5628 5627 5627 5626 5626 5625 5625 5624 5624 5623 5622 5622 5621 5621 5620 5619 5619 5618 5618 5617 5616 5616 5615 5614 5614 5614 5613 5613 5613 5613 5612 5612
5636 5636 5636 5636 5637 5637 5637 5637 5638 5638 5638 5638 5638 5637 5637 5637 5637 5637 5637 5637 5637 5637 5637 5637 5637 5637 5637 5637 5637 5637 5636 5636 5636 5635 5635 5634 5634 5634 5633 5633 5632 5632 5631 5631 5630 5630 5629 5628 5628 5627 5626 5626 5625 5625 5624 5624 5623 5623 5622 5622 5621 5621 5620 5619 5619 5618 5618 5617 5617 5616 5616 5615 5615 5614 5613 5613 5612 5612 5611 5611 5611 5610 5610 5609 5609 5608 5608
5635 5635 5635 5635 5635 5635 5635 5635 5635 5635 5635 5635 5634 5634 5634 5634 5634 5634 5634 5634 5634 5634 5634 5633 5633 5633 5633 5633 5633 5632 5632 5632 5632 5631 5631 5630 5630 5629 5628 5628 5627 5627 5626 5626 5625 5625 5624 5624 5623 5623 5622 5622 5621 5621 5620 5620 5619 5619 5618 5618 5617 5617 5617 5616 5616 5615 5614 5614 5613 5613 5612 5612 5611 5611 5610 5609 5609 5608 5608 5608 5607 5607 5606 5605 5605 5604 5604
5633 5633 5633 5633 5633 5633 5632 5632 5632 5632 5632 5632 5631 5631 5631 5630 5630 5630 5630 5630 5630 5630 5630 5630 5629 5629 5629 5629 5628 5628 5628 5627 5627 5627 5626 5626 5625 5624 5624 5623 5623 5622 5622 5621 5621 5620 5620 5620 5619 5619 5619 5618 5618 5617 5617 5616 5616 5615 5615 5614 5614 5613 5613 5613 5612 5612 5611 5610 5610 5609 5609 5608 5608 5607 5606 5606 5605 5604 5604 5603 5603 5602 5602 5601 5600 5600 5599
5631 5631 5631 5631 5630 5630 5630 5630 5629 5629 5629 5629 5629 5628 5628 5627 5627 5627 5627 5627 5627 5627 5626 5626 5626 5625 5625 5625 5624 5624 5623 5623 5622 5622 5621 5621 5620 5620 5619 5619 5618 5618 5618 5617 5617 5617 5616 5616 5615 5615 5615 5614 5614 5613 5613 5612 5612 5611 5611 5610 5610 5609 5609 5608 5608 5607 5607 5606 5605 5605 5604 5604 5603 5602 5602 5601 5600 5600 5599 5599 5598 5598 5597 5596 5596 5595 5594
5628 5628 5628 5628 5627 5627 5627 5627 5626 5626 5626 5626 5625 5625 5625 5624 5624 5624 5624 5623 5623 5623 5623 5622 5622 5621 5621 5621 5620 5619 5619 5618 5618 5617 5617 5616 5616 5615 5615 5615 5614 5614 5614 5613 5613 5613 5612 5612 5611 5611 5610 5610 5609 5609 5608 5608 5607 5607 5606 5605 5605 5605 5604 5604 5603 5602 5602 5601 5600 5600 5599 5598 5598 5597 5597 5596 5595 5595 5594 5594 5593 5593 5592 5592 5591 5590 5589